Weather History for Big Rapids, MI

Change the Weather History Date:

Friday, May 11, 2012

  Actual Average Record
Temperature  
Mean Temperature 52 °F -  
Max Temperature 71 °F 68 °F 85 °F (1982)
Min Temperature 33 °F 41 °F 30 °F (1977)
Degree Days  
Heating Degree Days 13    
Growing Degree Days 2 (Base 50)    
Moisture  
Dew Point 38 °F    
Average Humidity 61    
Maximum Humidity 100    
Minimum Humidity 25    
Precipitation  
Precipitation 0.00 in - - ()
Sea Level Pressure  
Sea Level Pressure 30.07 in    
Wind  
Wind Speed 4 mph (SW)    
Max Wind Speed 17 mph    
Max Gust Speed 26 mph    
Visibility 10 miles    
Events      
Averages and records for this station are not official NWS values.
T = Trace of Precipitation, MM = Missing Value Source: NWS Daily Summary

Daily Weather History Graph

Daily Weather History Graph

Search for Another Location

Airport:

Trip Planner

Search our weather history database for the weather conditions in past years. The results will help you decide how hot, cold, wet, or windy it might be!

Date:

Astronomy

May. 11, 2012 Rise Set
Actual Time 6:20 AM EDT 8:56 PM EDT
Civil Twilight 5:47 AM EDT 9:29 PM EDT
Nautical Twilight 5:06 AM EDT 10:10 PM EDT
Astronomical Twilight 4:20 AM EDT 10:57 PM EDT
Moon 1:34 AM EDT (5/11) 11:54 AM EDT (5/11)
Length of Visible Light 15h 41m
Length of Day
14h 36m
Waning Gibbous, 63% of the Moon is Illuminated
May 11
Waning Gibbous
May 12
Last Quarter
May 20
New
May 28
First Quarter
Jun 4
Full

Hourly Weather History & Observations

Time (EDT) Temp. Windchill Dew Point Humidity Pressure Visibility Wind Dir Wind Speed Gust Speed Precip Events Conditions
12:14 AM 40.8 °F - 36.9 °F 86% 30.01 in 10.0 mi Calm Calm - N/A   Clear
12:35 AM 42.4 °F - 38.1 °F 85% 30.01 in 10.0 mi Calm Calm - N/A   Clear
12:55 AM 40.3 °F - 37.8 °F 91% 30.02 in 10.0 mi Calm Calm - N/A   Clear
1:15 AM 39.6 °F - 39.2 °F 99% 30.02 in 10.0 mi Calm Calm - N/A   Clear
1:35 AM 38.5 °F - 37.8 °F 97% 30.02 in 10.0 mi Calm Calm - N/A   Clear
1:55 AM 38.5 °F - 38.1 °F 99% 30.03 in 10.0 mi Calm Calm - N/A   Clear
2:14 AM 38.1 °F - 37.4 °F 97% 30.03 in 10.0 mi Calm Calm - N/A   Clear
2:35 AM 36.0 °F - 36.0 °F 100% 30.03 in 10.0 mi Calm Calm - N/A   Clear
2:54 AM 37.6 °F - 37.6 °F 100% 30.03 in 10.0 mi Calm Calm - N/A   Clear
3:15 AM 36.3 °F - 36.1 °F 99% 30.03 in 10.0 mi Calm Calm - N/A   Clear
3:35 AM 36.1 °F 30.6 °F 36.1 °F 100% 30.04 in 10.0 mi East 6.9 mph - N/A   Clear
3:54 AM 36.1 °F 32.3 °F 36.1 °F 100% 30.04 in 10.0 mi SSW 4.6 mph - N/A   Clear
4:15 AM 35.1 °F - 35.1 °F 100% 30.04 in 10.0 mi Calm Calm - N/A   Clear
4:35 AM 35.4 °F 30.5 °F 35.4 °F 100% 30.05 in 10.0 mi SSW 5.8 mph - N/A   Clear
4:54 AM 35.8 °F - 35.8 °F 100% 30.05 in 10.0 mi Calm Calm - N/A   Clear
5:15 AM 34.9 °F 32.0 °F 34.9 °F 100% 30.06 in 10.0 mi South 3.5 mph - N/A   Clear
5:35 AM 35.1 °F 29.3 °F 35.1 °F 100% 30.06 in 7.0 mi SSW 6.9 mph - N/A   Clear
5:54 AM 34.2 °F 31.2 °F 34.2 °F 100% 30.06 in 4.0 mi SSW 3.5 mph - N/A   Clear
6:15 AM 33.6 °F 28.4 °F 33.6 °F 100% 30.07 in 10.0 mi SSW 5.8 mph - N/A   Clear
6:35 AM 34.9 °F 32.0 °F 34.9 °F 100% 30.08 in 10.0 mi SW 3.5 mph - N/A   Clear
6:54 AM 35.1 °F - 35.1 °F 100% 30.08 in 10.0 mi Calm Calm - N/A   Clear
7:15 AM 35.6 °F - 35.6 °F 100% 30.09 in 10.0 mi Calm Calm - N/A   Clear
7:35 AM 38.8 °F - 38.8 °F 100% 30.09 in 10.0 mi Calm Calm - N/A   Clear
7:54 AM 41.9 °F - 41.4 °F 98% 30.10 in 10.0 mi Calm Calm - N/A   Clear
8:15 AM 44.2 °F - 42.3 °F 93% 30.11 in 10.0 mi Calm Calm - N/A   Clear
8:34 AM 47.3 °F - 43.7 °F 87% 30.11 in 10.0 mi Calm Calm - N/A   Clear
8:55 AM 51.3 °F - 43.5 °F 75% 30.11 in 10.0 mi Calm Calm - N/A   Clear
9:15 AM 56.3 °F - 43.2 °F 61% 30.11 in 10.0 mi West 3.5 mph - N/A   Clear
9:34 AM 59.9 °F - 38.8 °F 46% 30.11 in 10.0 mi West 6.9 mph - N/A   Clear
9:55 AM 62.1 °F - 39.4 °F 43% 30.11 in 10.0 mi West 9.2 mph - N/A   Clear
10:15 AM 63.1 °F - 40.3 °F 43% 30.11 in 10.0 mi SW 9.2 mph - N/A   Clear
10:34 AM 64.2 °F - 40.3 °F 41% 30.10 in 10.0 mi WSW 8.1 mph - N/A   Clear
10:55 AM 65.7 °F - 40.6 °F 40% 30.10 in 10.0 mi West 8.1 mph - N/A   Clear
11:14 AM 66.4 °F - 40.8 °F 39% 30.10 in 10.0 mi West 9.2 mph - N/A   Clear
11:34 AM 67.3 °F - 39.9 °F 37% 30.10 in 10.0 mi West 8.1 mph - N/A   Clear
11:55 AM 68.2 °F - 40.1 °F 36% 30.10 in 10.0 mi West 6.9 mph - N/A   Clear
12:15 PM 68.7 °F - 39.6 °F 34% 30.09 in 10.0 mi SW 10.4 mph 17.3 mph N/A   Clear
12:34 PM 69.4 °F - 39.9 °F 34% 30.09 in 10.0 mi WSW 8.1 mph 17.3 mph N/A   Clear
12:55 PM 70.0 °F - 41.2 °F 35% 30.08 in 10.0 mi WSW 8.1 mph - N/A   Clear
1:14 PM 70.0 °F - 39.7 °F 33% 30.08 in 10.0 mi West 9.2 mph 16.1 mph N/A   Clear
1:35 PM 70.3 °F - 40.8 °F 34% 30.08 in 10.0 mi SW 15.0 mph 19.6 mph N/A   Clear
1:55 PM 70.7 °F - 39.4 °F 32% 30.08 in 10.0 mi West 12.7 mph 21.9 mph N/A   Clear
2:14 PM 71.1 °F - 38.3 °F 30% 30.08 in 10.0 mi SW 17.3 mph 25.3 mph N/A   Clear
2:35 PM 71.2 °F - 37.6 °F 29% 30.08 in 10.0 mi SW 11.5 mph 20.7 mph N/A   Clear
2:55 PM 71.2 °F - 36.7 °F 28% 30.08 in 10.0 mi WSW 13.8 mph 19.6 mph N/A   Clear
3:14 PM 71.1 °F - 35.2 °F 27% 30.08 in 10.0 mi WSW 16.1 mph 26.5 mph N/A   Clear
3:35 PM 71.2 °F - 35.6 °F 27% 30.09 in 10.0 mi West 13.8 mph 20.7 mph N/A   Clear
3:54 PM 70.9 °F - 34.5 °F 26% 30.09 in 10.0 mi WSW 16.1 mph 24.2 mph N/A   Clear
4:14 PM 71.2 °F - 35.6 °F 27% 30.08 in 10.0 mi WSW 12.7 mph 21.9 mph N/A   Clear
4:35 PM 70.9 °F - 34.7 °F 26% 30.08 in 10.0 mi WSW 13.8 mph 24.2 mph N/A   Clear
4:55 PM 71.6 °F - 34.9 °F 26% 30.08 in 10.0 mi SW 16.1 mph 20.7 mph N/A   Clear
5:14 PM 70.9 °F - 33.3 °F 25% 30.07 in 10.0 mi SW 17.3 mph 24.2 mph N/A   Clear
5:35 PM 70.7 °F - 33.1 °F 25% 30.07 in 10.0 mi WSW 16.1 mph 21.9 mph N/A   Clear
5:54 PM 70.7 °F - 34.2 °F 26% 30.07 in 10.0 mi WSW 12.7 mph 19.6 mph N/A   Clear
6:14 PM 70.7 °F - 34.5 °F 26% 30.07 in 10.0 mi WSW 10.4 mph 17.3 mph N/A   Clear
6:35 PM 70.3 °F - 34.7 °F 27% 30.07 in 10.0 mi WSW 10.4 mph 18.4 mph N/A   Clear
6:54 PM 70.0 °F - 33.6 °F 26% 30.07 in 10.0 mi WSW 5.8 mph - N/A   Clear
7:15 PM 69.6 °F - 33.8 °F 27% 30.07 in 10.0 mi SW 10.4 mph 18.4 mph N/A   Clear
7:35 PM 68.9 °F - 34.5 °F 28% 30.07 in 10.0 mi WSW 9.2 mph - N/A   Clear
7:54 PM 67.8 °F - 34.9 °F 30% 30.07 in 10.0 mi SW 8.1 mph - N/A   Clear
8:15 PM 67.1 °F - 34.3 °F 30% 30.08 in 10.0 mi SW 4.6 mph - N/A   Clear
8:35 PM 65.5 °F - 34.5 °F 32% 30.08 in 10.0 mi WSW 5.8 mph - N/A   Clear
8:54 PM 65.1 °F - 34.7 °F 32% 30.08 in 10.0 mi Calm Calm - N/A   Clear
9:15 PM 61.5 °F - 37.6 °F 41% 30.08 in 10.0 mi Calm Calm - N/A   Clear
9:35 PM 55.6 °F - 42.8 °F 62% 30.08 in 10.0 mi SSW 5.8 mph - N/A   Clear
9:54 PM 53.8 °F - 44.6 °F 71% 30.08 in 10.0 mi Calm Calm - N/A   Clear
10:15 PM 51.8 °F - 44.8 °F 77% 30.09 in 10.0 mi Calm Calm - N/A   Scattered Clouds
10:35 PM 51.8 °F - 45.3 °F 79% 30.08 in 10.0 mi SSW 6.9 mph - N/A   Clear
10:54 PM 52.0 °F - 44.6 °F 76% 30.08 in 10.0 mi South 5.8 mph - N/A   Scattered Clouds
11:15 PM 50.5 °F - 45.1 °F 82% 30.08 in 10.0 mi Calm Calm - N/A   Scattered Clouds
11:35 PM 50.4 °F - 44.2 °F 80% 30.08 in 10.0 mi Calm Calm - N/A   Clear
11:54 PM 50.0 °F - 44.2 °F 81% 30.08 in 10.0 mi Calm Calm - N/A   Scattered Clouds